Time,TemperatureF,DewpointF,PressureIn,WindDirection,WindDirectionDegrees,WindSpeedMPH,WindSpeedGustMPH,Humidity,HourlyPrecipIn,Conditions,Clouds,dailyrainin,SoftwareType,DateUTC
2013-03-11 00:09:00,19.1,9.0,30.36,South,179,2.0,-999.0,64,-99.99,,,0.00,weatherlink.com 1.10,2013-03-11 06:09:00,
2013-03-11 00:24:00,18.4,8.0,30.30,SSW,210,0.0,-999.0,65,-99.99,,,0.00,weatherlink.com 1.10,2013-03-11 06:24:00,
2013-03-11 00:39:00,18.6,8.0,30.30,South,173,2.0,-999.0,64,-99.99,,,0.00,weatherlink.com 1.10,2013-03-11 06:39:00,
2013-03-11 00:54:00,18.3,8.0,30.30,South,169,0.0,-999.0,63,-99.99,,,0.00,weatherlink.com 1.10,2013-03-11 06:54:00,
2013-03-11 01:09:00,18.0,8.0,30.30,SSW,210,0.0,-999.0,64,-99.99,,,0.00,weatherlink.com 1.10,2013-03-11 07:09:00,
2013-03-11 01:24:00,17.8,7.0,30.28,South,178,2.0,-999.0,64,-99.99,,,0.00,weatherlink.com 1.10,2013-03-11 07:24:00,
2013-03-11 01:39:00,17.8,7.0,30.28,South,173,2.0,-999.0,63,-99.99,,,0.00,weatherlink.com 1.10,2013-03-11 07:39:00,
2013-03-11 01:55:00,18.1,7.0,30.27,SSE,167,3.0,-999.0,63,-99.99,,,0.00,weatherlink.com 1.10,2013-03-11 07:55:00,
2013-03-11 02:10:00,18.1,7.0,30.28,SSE,150,0.0,-999.0,62,-99.99,,,0.00,weatherlink.com 1.10,2013-03-11 08:10:00,
2013-03-11 02:25:00,18.6,7.0,30.28,South,190,2.0,-999.0,61,-99.99,,,0.00,weatherlink.com 1.10,2013-03-11 08:25:00,
2013-03-11 02:55:00,18.0,7.0,30.28,South,178,2.0,-999.0,61,-99.99,,,0.00,weatherlink.com 1.10,2013-03-11 08:55:00,
2013-03-11 03:11:00,17.5,6.0,30.28,South,178,0.0,-999.0,61,-99.99,,,0.00,weatherlink.com 1.10,2013-03-11 09:11:00,
2013-03-11 03:26:00,17.7,7.0,30.27,SSE,167,0.0,-999.0,62,-99.99,,,0.00,weatherlink.com 1.10,2013-03-11 09:26:00,
2013-03-11 03:41:00,17.2,7.0,30.27,South,171,1.0,-999.0,63,-99.99,,,0.00,weatherlink.com 1.10,2013-03-11 09:41:00,
2013-03-11 03:56:00,16.9,7.0,30.26,South,171,0.0,-999.0,64,-99.99,,,0.00,weatherlink.com 1.10,2013-03-11 09:56:00,
2013-03-11 04:12:00,17.0,7.0,30.25,SSE,148,1.0,-999.0,64,-99.99,,,0.00,weatherlink.com 1.10,2013-03-11 10:12:00,
2013-03-11 04:27:00,17.2,7.0,30.21,SSE,154,0.0,-999.0,63,-99.99,,,0.00,weatherlink.com 1.10,2013-03-11 10:27:00,
2013-03-11 04:42:00,16.5,6.0,30.20,SSW,193,0.0,-999.0,64,-99.99,,,0.00,weatherlink.com 1.10,2013-03-11 10:42:00,
2013-03-11 04:57:00,18.1,7.0,30.20,South,176,0.0,-999.0,61,-99.99,,,0.00,weatherlink.com 1.10,2013-03-11 10:57:00,
2013-03-11 05:12:00,17.7,6.0,30.18,NNE,13,0.0,-999.0,60,-99.99,,,0.00,weatherlink.com 1.10,2013-03-11 11:12:00,
2013-03-11 05:29:00,16.7,6.0,30.20,South,179,0.0,-999.0,64,-99.99,,,0.00,weatherlink.com 1.10,2013-03-11 11:29:00,
2013-03-11 05:44:00,14.8,5.0,30.20,South,179,0.0,-999.0,66,-99.99,,,0.00,weatherlink.com 1.10,2013-03-11 11:44:00,
2013-03-11 05:59:00,14.3,6.0,30.22,South,179,0.0,-999.0,68,-99.99,,,0.00,weatherlink.com 1.10,2013-03-11 11:59:00,
2013-03-11 06:15:00,14.1,5.0,30.24,South,179,0.0,-999.0,67,-99.99,,,0.00,weatherlink.com 1.10,2013-03-11 12:15:00,
2013-03-11 06:30:00,13.6,5.0,30.31,South,179,0.0,-999.0,69,-99.99,,,0.00,weatherlink.com 1.10,2013-03-11 12:30:00,
2013-03-11 06:45:00,13.1,5.0,30.31,South,179,0.0,-999.0,69,-99.99,,,0.00,weatherlink.com 1.10,2013-03-11 12:45:00,
2013-03-11 07:00:00,12.9,5.0,30.32,South,179,0.0,-999.0,71,-99.99,,,0.00,weatherlink.com 1.10,2013-03-11 13:00:00,
2013-03-11 07:15:00,12.3,5.0,30.32,South,179,0.0,-999.0,72,-99.99,,,0.00,weatherlink.com 1.10,2013-03-11 13:15:00,
2013-03-11 07:30:00,12.9,5.0,30.40,South,179,0.0,-999.0,72,-99.99,,,0.00,weatherlink.com 1.10,2013-03-11 13:30:00,
2013-03-11 07:47:00,15.2,6.0,30.38,South,179,0.0,-999.0,67,-99.99,,,0.00,weatherlink.com 1.10,2013-03-11 13:47:00,
2013-03-11 08:02:00,14.4,5.0,30.35,South,179,0.0,-999.0,67,-99.99,,,0.00,weatherlink.com 1.10,2013-03-11 14:02:00,
2013-03-11 08:31:00,13.8,5.0,30.42,South,179,0.0,-999.0,69,-99.99,,,0.00,weatherlink.com 1.10,2013-03-11 14:31:00,
2013-03-11 08:46:00,14.8,6.0,30.39,South,179,0.0,-999.0,69,-99.99,,,0.00,weatherlink.com 1.10,2013-03-11 14:46:00,
2013-03-11 09:02:00,16.2,6.0,30.39,South,179,0.0,-999.0,65,-99.99,,,0.00,weatherlink.com 1.10,2013-03-11 15:02:00,
2013-03-11 09:18:00,18.3,7.0,30.37,South,179,0.0,-999.0,61,-99.99,,,0.00,weatherlink.com 1.10,2013-03-11 15:18:00,
2013-03-11 09:32:00,19.5,8.0,30.36,South,180,0.0,-999.0,60,-99.99,,,0.00,weatherlink.com 1.10,2013-03-11 15:32:00,
2013-03-11 09:49:00,21.8,9.0,30.33,South,180,0.0,-999.0,58,-99.99,,,0.00,weatherlink.com 1.10,2013-03-11 15:49:00,
2013-03-11 10:04:00,24.1,8.0,30.30,South,180,0.0,-999.0,51,-99.99,,,0.00,weatherlink.com 1.10,2013-03-11 16:04:00,
2013-03-11 10:20:00,26.1,8.0,30.30,South,180,0.0,-999.0,47,-99.99,,,0.00,weatherlink.com 1.10,2013-03-11 16:20:00,
2013-03-11 10:34:00,28.7,9.0,30.27,South,180,0.0,-999.0,43,-99.99,,,0.00,weatherlink.com 1.10,2013-03-11 16:34:00,
2013-03-11 10:49:00,31.0,8.0,30.24,NE,56,2.0,-999.0,38,-99.99,,,0.00,weatherlink.com 1.10,2013-03-11 16:49:00,
2013-03-11 11:04:00,31.8,9.0,30.22,NE,37,0.0,-999.0,38,-99.99,,,0.00,weatherlink.com 1.10,2013-03-11 17:04:00,
2013-03-11 11:19:00,32.9,10.0,30.24,NE,47,0.0,-999.0,38,-99.99,,,0.00,weatherlink.com 1.10,2013-03-11 17:19:00,
2013-03-11 11:35:00,35.5,13.0,30.21,NE,46,0.0,-999.0,40,-99.99,,,0.00,weatherlink.com 1.10,2013-03-11 17:35:00,
2013-03-11 11:50:00,37.2,11.0,30.18,NE,55,0.0,-999.0,34,-99.99,,,0.00,weatherlink.com 1.10,2013-03-11 17:50:00,
2013-03-11 12:05:00,38.3,12.0,30.18,NE,55,0.0,-999.0,34,-99.99,,,0.00,weatherlink.com 1.10,2013-03-11 18:05:00,
2013-03-11 12:20:00,38.6,11.0,30.18,NE,34,4.0,-999.0,32,-99.99,,,0.00,weatherlink.com 1.10,2013-03-11 18:20:00,
2013-03-11 12:35:00,39.6,12.0,30.18,NE,49,0.0,-999.0,32,-99.99,,,0.00,weatherlink.com 1.10,2013-03-11 18:35:00,
2013-03-11 12:51:00,42.3,14.0,30.15,NNE,12,0.0,-999.0,32,-99.99,,,0.00,weatherlink.com 1.10,2013-03-11 18:51:00,
2013-03-11 13:52:00,46.2,12.0,30.06,NNE,22,2.0,-999.0,25,-99.99,,,0.00,weatherlink.com 1.10,2013-03-11 19:52:00,
2013-03-11 14:09:00,47.1,13.0,30.05,NE,45,2.0,-999.0,25,-99.99,,,0.00,weatherlink.com 1.10,2013-03-11 20:09:00,
2013-03-11 14:37:00,47.0,15.0,30.04,NNE,28,0.0,-999.0,28,-99.99,,,0.00,weatherlink.com 1.10,2013-03-11 20:37:00,
2013-03-11 14:54:00,45.7,15.0,30.04,NE,42,0.0,-999.0,29,-99.99,,,0.00,weatherlink.com 1.10,2013-03-11 20:54:00,
2013-03-11 15:10:00,44.9,14.0,30.05,NE,40,0.0,-999.0,29,-99.99,,,0.00,weatherlink.com 1.10,2013-03-11 21:10:00,
2013-03-11 15:24:00,44.9,18.0,30.05,North,351,0.0,-999.0,34,-99.99,,,0.00,weatherlink.com 1.10,2013-03-11 21:24:00,
2013-03-11 15:39:00,44.9,19.0,30.05,NW,314,0.0,-999.0,36,-99.99,,,0.00,weatherlink.com 1.10,2013-03-11 21:39:00,
2013-03-11 15:54:00,45.1,14.0,30.05,NNW,348,0.0,-999.0,28,-99.99,,,0.00,weatherlink.com 1.10,2013-03-11 21:54:00,
2013-03-11 16:09:00,46.2,17.0,30.05,NW,320,2.0,-999.0,31,-99.99,,,0.00,weatherlink.com 1.10,2013-03-11 22:09:00,
2013-03-11 16:24:00,46.5,14.0,30.04,NW,320,0.0,-999.0,27,-99.99,,,0.00,weatherlink.com 1.10,2013-03-11 22:24:00,
2013-03-11 16:39:00,45.5,14.0,30.04,NE,51,0.0,-999.0,28,-99.99,,,0.00,weatherlink.com 1.10,2013-03-11 22:39:00,
2013-03-11 16:54:00,45.2,17.0,30.06,NE,51,0.0,-999.0,32,-99.99,,,0.00,weatherlink.com 1.10,2013-03-11 22:54:00,
2013-03-11 17:10:00,43.3,17.0,30.07,NE,49,0.0,-999.0,35,-99.99,,,0.00,weatherlink.com 1.10,2013-03-11 23:10:00,
2013-03-11 17:25:00,42.3,16.0,30.13,NE,47,0.0,-999.0,34,-99.99,,,0.00,weatherlink.com 1.10,2013-03-11 23:25:00,
2013-03-11 17:40:00,43.3,14.0,30.12,North,5,0.0,-999.0,31,-99.99,,,0.00,weatherlink.com 1.10,2013-03-11 23:40:00,
2013-03-11 17:55:00,42.9,15.0,30.11,NW,320,0.0,-999.0,32,-99.99,,,0.00,weatherlink.com 1.10,2013-03-11 23:55:00,
2013-03-11 18:11:00,43.9,18.0,30.13,WSW,237,2.0,-999.0,35,-99.99,,,0.00,weatherlink.com 1.10,2013-03-12 00:11:00,
2013-03-11 18:26:00,43.5,19.0,30.13,WSW,242,0.0,-999.0,37,-99.99,,,0.00,weatherlink.com 1.10,2013-03-12 00:26:00,
2013-03-11 18:56:00,39.9,19.0,30.16,WSW,242,3.0,-999.0,44,-99.99,,,0.00,weatherlink.com 1.10,2013-03-12 00:56:00,
2013-03-11 19:11:00,38.5,20.0,30.19,SW,234,2.0,-999.0,47,-99.99,,,0.00,weatherlink.com 1.10,2013-03-12 01:11:00,
2013-03-11 19:27:00,37.3,20.0,30.19,WSW,242,0.0,-999.0,50,-99.99,,,0.00,weatherlink.com 1.10,2013-03-12 01:27:00,
2013-03-11 19:42:00,36.5,19.0,30.22,South,175,3.0,-999.0,50,-99.99,,,0.00,weatherlink.com 1.10,2013-03-12 01:42:00,
2013-03-11 19:57:00,35.9,19.0,30.23,East,90,0.0,-999.0,50,-99.99,,,0.00,weatherlink.com 1.10,2013-03-12 01:57:00,
2013-03-11 20:12:00,34.7,19.0,30.25,East,94,0.0,-999.0,54,-99.99,,,0.00,weatherlink.com 1.10,2013-03-12 02:12:00,
2013-03-11 20:27:00,34.0,18.0,30.23,ESE,117,0.0,-999.0,53,-99.99,,,0.00,weatherlink.com 1.10,2013-03-12 02:27:00,
2013-03-11 20:42:00,32.8,19.0,30.24,SSE,167,2.0,-999.0,57,-99.99,,,0.00,weatherlink.com 1.10,2013-03-12 02:42:00,
2013-03-11 20:59:00,32.2,19.0,30.27,South,178,0.0,-999.0,59,-99.99,,,0.00,weatherlink.com 1.10,2013-03-12 02:59:00,
2013-03-11 21:14:00,31.5,19.0,30.28,South,178,2.0,-999.0,59,-99.99,,,0.00,weatherlink.com 1.10,2013-03-12 03:14:00,
2013-03-11 21:29:00,30.0,18.0,30.23,South,178,0.0,-999.0,62,-99.99,,,0.00,weatherlink.com 1.10,2013-03-12 03:29:00,
2013-03-11 21:44:00,30.6,19.0,30.23,SSW,199,0.0,-999.0,62,-99.99,,,0.00,weatherlink.com 1.10,2013-03-12 03:44:00,
2013-03-11 21:59:00,29.8,18.0,30.23,South,179,0.0,-999.0,62,-99.99,,,0.00,weatherlink.com 1.10,2013-03-12 03:59:00,
2013-03-11 22:14:00,29.8,18.0,30.23,SE,132,0.0,-999.0,63,-99.99,,,0.00,weatherlink.com 1.10,2013-03-12 04:14:00,
2013-03-11 22:29:00,29.1,17.0,30.16,South,173,0.0,-999.0,62,-99.99,,,0.00,weatherlink.com 1.10,2013-03-12 04:29:00,
2013-03-11 22:44:00,28.1,17.0,30.19,South,173,0.0,-999.0,64,-99.99,,,0.00,weatherlink.com 1.10,2013-03-12 04:44:00,
2013-03-11 22:59:00,28.1,17.0,30.19,South,173,0.0,-999.0,64,-99.99,,,0.00,weatherlink.com 1.10,2013-03-12 04:59:00,
2013-03-11 23:15:00,28.2,17.0,30.19,South,173,0.0,-999.0,63,-99.99,,,0.00,weatherlink.com 1.10,2013-03-12 05:15:00,
2013-03-11 23:30:00,28.7,15.0,30.14,SE,136,2.0,-999.0,58,-99.99,,,0.00,weatherlink.com 1.10,2013-03-12 05:30:00,
2013-03-11 23:45:00,28.1,15.0,30.14,South,169,0.0,-999.0,59,-99.99,,,0.00,weatherlink.com 1.10,2013-03-12 05:45:00,